Theta_e
300 300 301 302 301 298 298 296 292 293 295 292 289 289 294 294 294 293 294 294 295 294 295 294 293 298 300 300 300 306 305 310 312 311 310 310 309 309 308 308 310 309 309 309
301 300 300 301 301 298 297 295 294 293 294 288 285 292 293 293 293 292 292 291 292 294 295 295 296 297 298 299 299 304 304 311 312 313 311 310 312 310 308 307 308 310 312 310
301 300 300 300 300 299 297 294 289 293 293 292 288 290 291 292 292 292 291 290 292 294 294 294 295 295 296 296 297 301 305 312 312 311 312 309 312 311 309 309 309 309 310 306
300 300 300 300 300 299 297 294 287 289 287 289 281 285 282 286 288 291 291 290 290 293 290 293 294 293 294 297 295 297 301 310 310 311 310 311 310 311 309 309 309 310 309 307
300 300 300 300 300 300 297 295 295 294 293 290 283 285 282 286 287 288 288 287 289 288 284 287 287 290 293 294 294 294 296 306 307 311 310 308 306 303 310 308 305 306 303 299
300 299 299 300 300 299 296 294 296 295 291 284 282 282 286 288 291 290 292 291 285 288 289 288 289 290 291 292 294 294 290 299 302 308 310 308 309 298 297 297 292 296 306 297
299 299 299 299 299 298 298 294 293 294 285 286 283 286 290 291 292 285 292 290 286 289 290 294 295 294 295 295 294 295 293 292 303 301 308 314 298 292 292 293 290 290 290 288
299 299 298 298 298 299 298 296 293 292 284 289 290 289 289 290 289 290 292 291 289 291 293 290 290 290 291 292 298 296 296 295 296 302 305 298 297 294 294 296 295 287 288 287
299 298 298 298 297 298 298 298 295 292 293 288 291 291 290 282 279 281 290 291 288 293 294 287 288 290 289 292 293 294 297 297 294 300 304 304 295 290 289 291 303 286 287 285
298 299 298 297 298 297 297 297 297 293 289 293 291 289 286 289 286 280 286 287 287 290 281 281 286 290 287 291 291 290 289 291 296 292 298 295 289 288 290 303 299 284 284 283
296 299 299 298 298 297 296 296 296 295 290 290 291 291 291 291 289 279 287 284 284 283 282 283 284 285 285 286 281 285 287 289 292 293 296 300 288 288 296 288 283 283 282 282
295 297 298 299 298 297 296 296 295 294 290 291 291 290 290 291 290 287 287 285 286 288 282 278 280 287 278 280 287 280 286 285 288 292 295 287 288 287 287 285 283 282 281 281
293 296 297 298 298 297 296 295 295 292 290 290 291 291 291 291 290 289 286 286 286 288 288 286 281 283 283 283 284 282 280 279 280 283 282 285 286 286 285 285 284 282 282 281
292 294 296 297 296 296 296 295 295 290 290 289 291 291 291 291 290 290 289 285 285 287 288 288 279 281 286 282 283 282 284 279 279 279 278 284 285 285 286 284 284 283 282 281
292 292 294 296 294 295 295 295 292 291 293 290 290 289 289 289 289 289 289 284 285 287 287 286 281 286 284 278 277 277 281 281 284 286 286 286 287 287 285 285 284 284 282 281
291 292 292 295 292 294 295 294 292 290 291 291 282 288 288 287 287 288 287 284 286 288 288 288 288 286 284 279 278 284 287 288 289 288 288 287 287 287 285 285 284 284 282 281
291 291 292 295 293 293 294 294 294 291 290 290 286 284 285 286 285 284 284 285 287 287 288 288 287 285 284 272 280 286 287 288 287 287 287 284 285 285 285 284 284 282 281 280
291 291 292 295 292 292 293 293 292 291 290 288 277 279 283 282 282 282 283 284 286 287 287 286 285 282 279 279 282 287 288 287 286 286 286 285 285 284 283 283 281 280 279 279
291 292 294 292 293 293 292 290 288 287 289 286 281 279 281 280 282 283 282 285 282 285 284 285 284 280 281 284 285 288 287 289 288 285 284 284 284 283 282 281 280 279 279 279
293 293 292 293 293 291 291 291 287 284 284 285 282 284 281 281 281 282 283 283 281 281 284 283 281 283 285 286 287 288 287 287 287 284 281 282 282 282 282 281 279 279 279 279
293 293 294 293 293 292 292 288 282 281 282 283 283 283 281 281 280 282 283 281 280 278 282 283 281 283 282 287 287 287 286 286 287 287 286 285 285 284 282 280 279 279 279 279
294 296 294 292 291 288 285 283 283 282 284 282 281 282 283 280 282 282 280 280 277 280 279 277 280 280 286 287 287 287 286 286 286 285 283 283 282 281 280 279 279 279 279 278
295 294 294 292 288 287 286 287 286 284 283 282 280 278 281 280 282 281 278 278 280 280 276 280 281 283 285 285 286 286 286 286 285 284 282 282 282 280 279 279 279 279 278 277
294 293 292 290 288 287 287 289 290 286 285 282 282 279 280 280 281 280 282 280 278 276 276 281 276 285 283 284 285 285 285 285 284 283 283 282 281 280 279 279 278 278 277 277
293 293 293 290 290 289 289 289 290 287 285 283 283 281 283 280 281 281 280 278 278 279 282 279 284 284 286 287 287 285 284 283 283 283 282 281 280 279 279 278 277 277 277 276
293 294 292 290 290 288 288 288 287 286 284 285 287 283 284 283 281 278 280 281 282 283 278 283 285 286 286 286 287 287 283 282 282 280 280 279 278 278 278 278 277 277 276 276
293 292 294 293 293 293 292 292 288 286 284 287 285 286 288 281 281 279 279 279 281 284 284 284 284 284 285 285 286 285 283 281 280 280 279 278 277 277 278 277 276 276 276 275
Wind_Speed
41 42 44 43 40 25 9 16 5 34 13 9 6 4 4 9 11 21 7 5 5 3 5 7 5 3 4 13 7 4 4 2 4 11 3 4 1 4 4 4 4 2 3 4
43 41 41 43 41 28 13 6 5 25 18 5 4 4 4 7 10 9 7 8 7 4 6 5 4 3 6 9 10 4 5 2 4 4 7 1 4 4 3 3 3 4 5 4
42 43 42 40 40 30 15 5 4 11 22 11 5 2 5 4 8 4 6 6 7 5 6 4 4 6 4 12 12 7 5 2 3 6 2 3 4 3 3 4 2 3 4 6
39 42 43 41 39 36 12 9 2 3 4 7 5 3 1 4 6 9 15 5 10 4 6 6 6 7 6 3 15 6 3 2 2 1 5 3 4 5 6 6 4 4 5 9
35 38 42 41 38 35 38 7 4 4 3 2 4 6 2 2 4 3 5 4 6 5 4 2 4 8 6 4 8 6 6 2 3 3 5 3 3 3 4 3 3 5 8 2
30 34 39 42 39 36 23 15 8 2 7 3 4 2 2 3 3 2 0 2 2 4 2 8 13 11 12 7 5 4 4 2 2 3 3 1 2 2 3 3 4 2 6 3
25 30 34 38 39 35 29 22 9 3 2 3 2 2 2 2 3 4 3 3 3 2 13 6 4 7 9 7 6 6 3 2 0 2 1 3 2 3 3 5 3 3 6 4
21 24 28 33 35 33 29 24 15 5 0 1 1 3 2 2 4 2 2 2 6 11 6 3 4 4 5 4 1 3 5 0 1 2 0 4 2 4 5 4 4 2 4 3
16 19 22 26 29 31 28 25 21 7 2 3 1 1 1 2 1 5 2 3 3 4 3 4 2 1 4 5 7 2 3 2 2 0 4 6 1 3 4 2 4 8 5 3
11 15 18 20 23 26 28 23 19 9 1 2 2 2 2 2 2 2 4 6 4 5 2 3 2 2 2 2 2 3 3 2 3 2 2 6 3 8 8 4 1 8 7 4
9 11 15 18 21 24 26 24 20 12 3 4 3 4 3 2 3 3 0 2 3 4 4 3 2 2 2 2 3 3 3 3 3 2 0 6 8 5 5 5 9 9 7 5
11 11 13 17 20 22 25 25 24 15 3 3 6 7 7 6 5 1 1 3 2 2 3 1 2 1 1 3 3 3 3 5 3 6 3 2 12 3 6 12 12 8 6 4
14 13 13 14 19 22 23 24 23 10 3 4 5 6 7 9 7 5 3 3 4 4 3 5 3 2 3 3 5 2 4 5 3 4 3 7 12 9 10 13 9 6 4 2
17 14 14 14 15 22 23 23 16 2 3 2 3 7 7 7 10 8 6 4 5 6 5 1 2 2 6 3 2 3 3 7 4 6 7 6 15 17 13 16 11 5 3 3
19 17 16 15 13 20 23 21 4 3 4 3 5 7 11 9 9 10 8 6 8 6 4 2 3 2 1 1 1 4 12 7 5 5 8 4 3 24 19 19 13 7 5 6
21 18 15 14 13 16 21 5 5 7 3 4 2 3 5 7 9 10 9 8 9 5 4 4 3 3 3 2 3 10 21 19 17 3 11 9 5 13 18 18 14 10 10 10
22 18 16 13 12 15 13 7 11 11 4 3 5 3 4 8 8 9 9 9 4 5 3 4 3 5 5 2 3 6 8 21 18 10 17 9 14 9 19 17 14 13 12 11
21 16 14 12 13 16 17 16 12 11 5 5 1 3 3 10 7 6 8 6 7 5 3 3 4 4 2 4 16 13 6 12 18 18 17 6 8 13 16 17 14 12 10 9
18 17 14 10 11 10 10 8 8 12 9 4 5 3 4 11 6 5 7 6 2 4 3 3 6 2 5 10 12 13 20 14 16 23 20 13 10 14 15 15 14 11 9 9
20 15 5 4 5 9 7 6 2 5 6 6 6 6 3 10 7 4 5 4 2 2 3 7 2 4 29 25 22 13 6 18 18 25 23 22 21 20 17 14 11 10 10 10
22 12 9 10 10 5 4 3 3 4 4 8 7 17 4 10 3 3 6 3 1 1 2 3 2 4 5 2 4 7 15 21 22 20 15 17 13 15 15 13 12 11 11 11
21 14 11 9 7 5 3 3 2 4 4 7 7 6 6 6 5 4 5 3 2 4 3 2 3 4 8 8 9 8 8 21 20 23 15 12 11 9 10 10 10 10 12 11
20 10 10 8 7 4 8 9 4 3 7 12 8 2 6 5 3 5 3 3 4 5 1 4 5 6 10 13 11 9 9 18 22 27 21 15 11 9 8 9 11 14 12 11
12 11 7 6 5 6 6 5 5 8 8 19 14 7 4 4 3 2 4 2 3 1 2 7 3 8 15 14 7 8 10 18 23 25 21 16 12 10 9 11 14 12 11 11
9 9 7 9 11 5 8 11 12 10 18 25 9 4 4 1 3 1 4 2 4 6 5 3 2 10 17 19 17 12 11 16 21 23 21 17 14 11 11 11 11 11 11 11
9 10 4 2 6 5 9 14 10 18 27 15 5 3 3 3 3 3 7 6 7 3 3 1 12 15 16 17 16 14 10 16 20 20 19 17 14 11 10 10 11 12 12 12
8 7 21 20 8 11 15 21 18 24 25 4 4 5 6 4 2 4 5 5 3 2 5 7 10 14 15 15 15 14 13 15 21 22 19 16 14 14 12 13 13 13 13 13
Wind_Direction
22 21 19 17 12 20 40 45 50 9 40 59 36 42 11 7 344 13 18 36 15 24 346 18 66 60 3 356 325 24 2 85 109 210 65 8 290 184 130 118 205 165 145 243
21 21 20 19 17 15 28 59 45 25 58 72 7 31 41 45 10 1 13 7 0 351 5 70 63 47 340 9 19 20 334 346 99 65 315 301 230 205 159 139 85 191 138 236
20 24 23 21 22 19 34 60 30 27 49 60 90 62 14 19 10 33 16 16 1 350 23 22 38 359 334 342 4 347 307 17 53 184 227 111 188 162 145 141 120 162 204 156
22 27 27 24 26 33 46 47 48 41 345 11 51 70 5 356 11 3 15 31 22 340 9 353 19 1 344 8 359 2 38 54 351 352 296 280 225 167 182 195 182 165 196 154
21 26 28 27 27 32 47 65 57 62 54 341 48 7 336 353 316 53 341 47 330 41 80 140 310 359 7 355 326 14 345 94 356 305 343 308 131 343 178 160 75 77 104 96
20 27 30 27 25 28 41 44 51 62 358 24 76 265 260 275 338 297 143 323 68 16 110 295 276 257 264 263 316 327 36 27 3 229 335 15 348 292 335 80 51 34 170 121
18 24 30 30 27 28 32 34 34 38 286 72 202 196 221 295 322 203 310 28 94 336 319 293 250 245 252 248 249 213 339 346 286 240 7 187 147 122 31 112 84 78 94 85
16 18 29 31 30 27 25 26 30 23 113 222 226 277 244 335 326 347 286 318 324 328 346 26 7 343 13 321 320 180 201 248 347 139 183 293 179 190 169 194 198 216 147 130
4 10 22 27 28 26 21 22 17 18 107 274 280 191 -0 159 2 343 258 285 335 6 66 61 111 233 226 301 332 28 142 104 121 202 151 219 173 169 123 56 266 165 174 143
343 356 4 17 16 21 16 14 10 9 329 209 274 262 200 148 125 184 301 336 1 11 65 82 124 265 198 279 280 297 332 8 158 283 232 280 226 149 144 143 230 149 152 158
304 333 346 1 1 7 13 5 359 357 276 254 249 258 241 208 212 136 99 25 320 28 69 117 209 146 257 22 235 190 198 143 207 109 240 275 145 111 195 128 122 147 153 159
283 297 323 344 349 354 3 360 350 341 263 227 261 248 249 257 245 226 94 135 169 150 88 37 109 210 37 161 275 343 292 188 211 195 218 165 183 161 161 159 152 170 170 171
274 280 303 327 331 337 349 352 345 337 299 278 246 242 247 249 240 221 225 182 163 177 140 152 173 196 143 198 240 230 238 180 210 35 251 208 195 199 189 182 173 162 168 203
268 269 282 307 317 323 336 343 339 19 323 310 241 238 253 244 228 221 218 198 164 156 150 162 140 170 191 220 240 201 210 144 174 272 278 285 236 222 207 188 186 186 211 271
263 263 268 298 307 313 324 336 295 113 38 275 284 262 252 240 223 223 219 213 175 153 173 175 229 210 138 3 33 246 188 184 171 221 217 184 236 208 203 199 198 219 248 266
259 261 261 288 297 306 317 301 229 221 345 317 324 240 225 221 218 213 214 200 183 177 198 219 208 179 178 168 236 256 211 209 210 222 190 193 165 183 197 203 221 242 260 270
255 257 257 278 288 294 298 277 286 230 288 308 298 278 197 193 180 190 198 196 191 197 230 225 194 192 204 151 241 258 231 225 219 221 175 168 186 196 198 209 227 244 256 261
249 249 256 276 283 286 290 284 254 227 270 233 180 267 223 183 174 177 178 191 199 215 241 210 192 170 212 256 240 236 261 211 205 201 202 214 195 201 199 211 221 236 243 259
232 233 250 273 280 275 263 251 248 240 225 240 194 184 219 173 159 156 161 175 179 190 214 228 163 191 233 229 238 242 224 210 206 200 207 216 209 199 203 218 232 235 239 257
213 223 210 233 219 229 274 270 206 191 207 229 237 206 200 173 169 155 130 167 201 196 228 154 186 257 259 260 254 251 234 222 215 196 205 209 208 210 219 231 241 242 248 253
196 190 206 222 211 242 228 198 186 190 260 217 229 200 156 191 136 164 194 162 169 132 228 170 241 265 253 256 316 297 244 231 222 226 237 232 232 224 221 225 232 240 247 254
192 202 190 178 197 193 168 205 142 202 240 197 176 186 194 159 165 125 163 129 79 230 139 92 252 254 291 323 326 313 251 207 214 209 208 197 204 209 216 224 235 246 252 254
184 187 177 177 186 199 195 189 194 222 197 185 162 149 166 146 161 91 113 114 200 132 122 231 234 280 334 334 307 280 236 210 209 205 205 209 214 219 222 232 242 243 239 251
176 174 194 199 190 233 196 187 164 176 172 162 147 128 176 153 114 145 126 141 99 103 252 232 248 341 347 352 327 282 259 224 215 210 214 217 222 220 226 237 238 234 238 248
179 194 216 207 212 210 205 186 141 158 160 152 117 106 180 143 113 178 101 71 248 216 233 224 349 356 352 356 358 332 275 230 215 209 216 221 223 225 231 238 236 240 243 250
207 215 211 136 150 181 170 180 171 164 156 144 151 150 155 196 143 134 214 159 224 235 216 324 337 340 348 348 344 328 291 237 224 218 219 224 226 231 240 247 247 246 247 251
213 218 205 191 196 188 191 202 195 177 158 165 151 175 203 109 180 235 193 211 226 138 339 344 346 342 338 331 326 317 299 253 231 227 226 229 224 229 243 249 250 246 248 252